| time (UTC) | temp F | wind direction | speed MPH | gust MPH | rain 1hr in | rain 24hr in | rain mn in | humidity % | barometer mb |
| 20260510033232 | 75 | 173 | 2.0 | 5.0 | 0.00 | 0.00 | 0.00 | 64 | 1011.9 |
| 20260510032728 | 74 | 157 | 3.0 | 4.0 | 0.00 | 0.00 | 0.00 | 63 | 1011.8 |
| 20260510032224 | 74 | 175 | 2.0 | 3.0 | 0.00 | 0.00 | 0.00 | 62 | 1011.8 |
| 20260510031719 | 74 | 191 | 2.0 | 4.0 | 0.00 | 0.00 | 0.00 | 58 | 1011.9 |
| 20260510031216 | 73 | 168 | 2.0 | 2.0 | 0.00 | 0.00 | 0.00 | 56 | 1011.9 |
| 20260510030715 | 73 | 135 | 2.0 | 4.0 | 0.00 | 0.00 | 0.00 | 52 | 1011.8 |
| 20260510030213 | 72 | 98 | 1.0 | 2.0 | 0.00 | 0.00 | 0.00 | 53 | 1012.0 |
| 20260510025710 | 71 | 143 | 1.0 | 5.0 | 0.00 | 0.00 | 0.00 | 53 | 1011.7 |
| 20260510025207 | 69 | 173 | 0.0 | 2.0 | 0.00 | 0.00 | 0.00 | 53 | 1012.1 |
| 20260510024704 | 66 | 302 | 0.0 | 2.0 | 0.00 | 0.00 | 0.00 | 59 | 1011.7 |
| 20260510024200 | 66 | 158 | 0.0 | 1.0 | 0.00 | 0.00 | 0.00 | 64 | 1011.8 |
| 20260510023656 | 65 | 120 | 1.0 | 1.0 | 0.00 | 0.00 | 0.00 | 69 | 1011.7 |
| 20260510023154 | 65 | 103 | 0.0 | 2.0 | 0.00 | 0.00 | 0.00 | 69 | 1011.5 |
| 20260510022649 | 65 | 113 | 0.0 | 1.0 | 0.00 | 0.00 | 0.00 | 69 | 1011.6 |
| 20260510022144 | 64 | 55 | 0.0 | 1.0 | 0.00 | 0.00 | 0.00 | 69 | 1011.3 |
| 20260510021640 | 64 | 103 | 0.0 | 0.0 | 0.00 | 0.00 | 0.00 | 72 | 1011.2 |
| 20260510021138 | 64 | 110 | 0.0 | 1.0 | 0.00 | 0.00 | 0.00 | 74 | 1011.4 |
| 20260510020638 | 65 | 71 | 0.0 | 0.0 | 0.00 | 0.00 | 0.00 | 76 | 1011.3 |
| 20260510020133 | 65 | 89 | 0.0 | 2.0 | 0.00 | 0.00 | 0.00 | 73 | 1011.1 |
| 20260510015629 | 66 | 135 | 0.0 | 2.0 | 0.00 | 0.00 | 0.00 | 71 | 1011.1 |
| 20260510015126 | 67 | 61 | 1.0 | 1.0 | 0.00 | 0.00 | 0.00 | 65 | 1010.9 |
| 20260510014621 | 68 | 89 | 0.0 | 1.0 | 0.00 | 0.00 | 0.00 | 63 | 1010.8 |
| 20260510014119 | 68 | 89 | 0.0 | 2.0 | 0.00 | 0.00 | 0.00 | 63 | 1010.8 |
| 20260510013619 | 68 | 135 | 0.0 | 1.0 | 0.00 | 0.00 | 0.00 | 65 | 1010.7 |
| 20260510013115 | 69 | 89 | 0.0 | 2.0 | 0.00 | 0.00 | 0.00 | 66 | 1010.8 |
| 20260510012614 | 69 | 146 | 0.0 | 0.0 | 0.00 | 0.00 | 0.00 | 62 | 1010.5 |
| 20260510012111 | 70 | 212 | 0.0 | 0.0 | 0.00 | 0.00 | 0.00 | 61 | 1010.6 |
| 20260510011610 | 71 | 142 | 0.0 | 1.0 | 0.00 | 0.00 | 0.00 | 65 | 1010.5 |
| 20260510011106 | 71 | 210 | 0.0 | 2.0 | 0.00 | 0.00 | 0.00 | 62 | 1010.6 |
| 20260510010603 | 71 | 181 | 0.0 | 2.0 | 0.00 | 0.00 | 0.00 | 63 | 1010.5 |
| 20260510010100 | 71 | 168 | 1.0 | 2.0 | 0.00 | 0.00 | 0.00 | 64 | 1010.5 |
| 20260510005555 | 72 | 192 | 0.0 | 2.0 | 0.00 | 0.00 | 0.00 | 63 | 1010.4 |
| 20260510005054 | 73 | 185 | 1.0 | 2.0 | 0.00 | 0.00 | 0.00 | 63 | 1010.3 |
| 20260510004551 | 73 | 165 | 2.0 | 2.0 | 0.00 | 0.00 | 0.00 | 61 | 1010.5 |
| 20260510004049 | 74 | 198 | 2.0 | 2.0 | 0.00 | 0.00 | 0.00 | 60 | 1010.3 |
| 20260510003545 | 75 | 175 | 1.0 | 2.0 | 0.00 | 0.00 | 0.00 | 61 | 1010.4 |
| 20260510003041 | 75 | 177 | 1.0 | 2.0 | 0.00 | 0.00 | 0.00 | 57 | 1010.3 |
| 20260510002536 | 76 | 177 | 2.0 | 2.0 | 0.00 | 0.00 | 0.00 | 54 | 1010.4 |
| 20260510002034 | 77 | 211 | 1.0 | 2.0 | 0.00 | 0.00 | 0.00 | 53 | 1010.4 |
| 20260510001531 | 78 | 198 | 1.0 | 2.0 | 0.00 | 0.00 | 0.00 | 53 | 1010.3 |
| 20260510001029 | 79 | 217 | 0.0 | 2.0 | 0.00 | 0.00 | 0.00 | 47 | 1010.3 |
| 20260510000524 | 80 | 227 | 1.0 | 2.0 | 0.00 | 0.00 | 0.00 | 46 | 1010.3 |
| 20260510000021 | 82 | 216 | 2.0 | 2.0 | 0.00 | 0.00 | 0.00 | 44 | 1010.3 |
| 20260509235518 | 84 | 200 | 2.0 | 2.0 | 0.00 | 0.00 | 0.00 | 41 | 1010.3 |
| 20260509235014 | 85 | 220 | 2.0 | 2.0 | 0.00 | 0.00 | 0.00 | 41 | 1010.4 |
| 20260509234511 | 86 | 186 | 1.0 | 2.0 | 0.00 | 0.00 | 0.00 | 39 | 1010.3 |
| 20260509234009 | 88 | 128 | 0.0 | 2.0 | 0.00 | 0.00 | 0.00 | 33 | 1010.3 |
| 20260509233501 | 89 | 105 | 0.0 | 0.0 | 0.00 | 0.00 | 0.00 | 37 | 1010.3 |
| 20260509232957 | 89 | 224 | 0.0 | 0.0 | 0.00 | 0.00 | 0.00 | 32 | 1010.2 |
| 20260509232455 | 88 | 44 | 0.0 | 1.0 | 0.00 | 0.00 | 0.00 | 31 | 1010.2 |
| 20260509231950 | 87 | 129 | 0.0 | 1.0 | 0.00 | 0.00 | 0.00 | 34 | 1010.2 |
| 20260509231447 | 86 | 133 | 1.0 | 2.0 | 0.00 | 0.00 | 0.00 | 31 | 1010.2 |
| 20260509230945 | 86 | 19 | 0.0 | 1.0 | 0.00 | 0.00 | 0.00 | 33 | 1010.3 |
| 20260509230442 | 86 | 13 | 3.0 | 3.0 | 0.00 | 0.00 | 0.00 | 29 | 1010.4 |
| 20260509225938 | 86 | 0 | 0.0 | 1.0 | 0.00 | 0.00 | 0.00 | 33 | 1010.2 |
| 20260509225435 | 88 | 11 | 2.0 | 2.0 | 0.00 | 0.00 | 0.00 | 32 | 1010.3 |
| 20260509224931 | 91 | 323 | 0.0 | 2.0 | 0.00 | 0.00 | 0.00 | 26 | 1010.3 |
| 20260509224426 | 91 | 216 | 2.0 | 2.0 | 0.00 | 0.00 | 0.00 | 24 | 1010.1 |
| 20260509223923 | 87 | 349 | 1.0 | 2.0 | 0.00 | 0.00 | 0.00 | 26 | 1010.1 |
| 20260509223420 | 87 | 83 | 2.0 | 3.0 | 0.00 | 0.00 | 0.00 | 29 | 1010.2 |
| 20260509222918 | 88 | 141 | 0.0 | 2.0 | 0.00 | 0.00 | 0.00 | 29 | 1010.0 |
| 20260509222412 | 87 | 110 | 0.0 | 2.0 | 0.00 | 0.00 | 0.00 | 26 | 1010.1 |
| 20260509221907 | 89 | 269 | 0.0 | 2.0 | 0.00 | 0.00 | 0.00 | 29 | 1010.1 |
| 20260509221405 | 87 | 323 | 2.0 | 2.0 | 0.00 | 0.00 | 0.00 | 27 | 1010.3 |
| 20260509220901 | 87 | 88 | 2.0 | 3.0 | 0.00 | 0.00 | 0.00 | 28 | 1010.1 |
| 20260509220356 | 86 | 31 | 1.0 | 3.0 | 0.00 | 0.00 | 0.00 | 31 | 1010.2 |
| 20260509215852 | 87 | 66 | 2.0 | 4.0 | 0.00 | 0.00 | 0.00 | 30 | 1010.0 |
| 20260509215343 | 87 | 60 | 0.0 | 2.0 | 0.00 | 0.00 | 0.00 | 28 | 1010.0 |
| 20260509214840 | 86 | 138 | 2.0 | 5.0 | 0.00 | 0.00 | 0.00 | 26 | 1010.1 |
| 20260509214337 | 86 | 89 | 3.0 | 3.0 | 0.00 | 0.00 | 0.00 | 29 | 1010.0 |
| 20260509213834 | 86 | 142 | 0.0 | 3.0 | 0.00 | 0.00 | 0.00 | 29 | 1010.2 |
| 20260509213330 | 86 | 57 | 2.0 | 3.0 | 0.00 | 0.00 | 0.00 | 26 | 1010.2 |
| 20260509212827 | 86 | 343 | 2.0 | 3.0 | 0.00 | 0.00 | 0.00 | 31 | 1010.3 |
| 20260509212325 | 85 | 19 | 2.0 | 5.0 | 0.00 | 0.00 | 0.00 | 33 | 1010.3 |
| 20260509211821 | 85 | 39 | 4.0 | 5.0 | 0.00 | 0.00 | 0.00 | 30 | 1010.4 |
| 20260509211317 | 85 | 53 | 2.0 | 4.0 | 0.00 | 0.00 | 0.00 | 33 | 1010.4 |
| 20260509210814 | 85 | 38 | 2.0 | 5.0 | 0.00 | 0.00 | 0.00 | 33 | 1010.4 |
| 20260509210312 | 86 | 352 | 2.0 | 3.0 | 0.00 | 0.00 | 0.00 | 36 | 1010.6 |
| 20260509205810 | 84 | 8 | 5.0 | 7.0 | 0.00 | 0.00 | 0.00 | 32 | 1010.5 |
| 20260509205307 | 85 | 12 | 5.0 | 6.0 | 0.00 | 0.00 | 0.00 | 35 | 1010.6 |
| 20260509204803 | 85 | 40 | 3.0 | 6.0 | 0.00 | 0.00 | 0.00 | 33 | 1010.7 |
| 20260509204259 | 84 | 1 | 3.0 | 7.0 | 0.00 | 0.00 | 0.00 | 37 | 1010.7 |
| 20260509203755 | 84 | 62 | 5.0 | 6.0 | 0.00 | 0.00 | 0.00 | 37 | 1010.7 |
| 20260509203252 | 84 | 350 | 2.0 | 5.0 | 0.00 | 0.00 | 0.00 | 34 | 1010.6 |
| 20260509202748 | 84 | 43 | 4.0 | 8.0 | 0.00 | 0.00 | 0.00 | 37 | 1010.6 |
| 20260509202244 | 85 | 7 | 8.0 | 8.0 | 0.00 | 0.00 | 0.00 | 41 | 1011.0 |
| 20260509201738 | 85 | 40 | 4.0 | 6.0 | 0.00 | 0.00 | 0.00 | 40 | 1011.0 |
| 20260509201235 | 85 | 40 | 6.0 | 6.0 | 0.00 | 0.00 | 0.00 | 40 | 1011.0 |
| 20260509200731 | 84 | 86 | 2.0 | 5.0 | 0.00 | 0.00 | 0.00 | 43 | 1011.0 |
| 20260509200227 | 84 | 121 | 2.0 | 6.0 | 0.00 | 0.00 | 0.00 | 37 | 1011.0 |
| 20260509195723 | 84 | 114 | 3.0 | 6.0 | 0.00 | 0.00 | 0.00 | 36 | 1011.1 |
| 20260509195219 | 84 | 64 | 4.0 | 5.0 | 0.00 | 0.00 | 0.00 | 38 | 1011.2 |
| 20260509194719 | 85 | 322 | 2.0 | 3.0 | 0.00 | 0.00 | 0.00 | 41 | 1011.2 |
| 20260509194215 | 84 | 13 | 4.0 | 5.0 | 0.00 | 0.00 | 0.00 | 46 | 1011.1 |
| 20260509193712 | 84 | 10 | 4.0 | 5.0 | 0.00 | 0.00 | 0.00 | 41 | 1011.1 |
| 20260509193212 | 84 | 5 | 2.0 | 6.0 | 0.00 | 0.00 | 0.00 | 38 | 1011.2 |
| 20260509192709 | 84 | 340 | 2.0 | 5.0 | 0.00 | 0.00 | 0.00 | 38 | 1011.2 |
| 20260509192204 | 84 | 60 | 2.0 | 4.0 | 0.00 | 0.00 | 0.00 | 40 | 1011.3 |
| 20260509191659 | 83 | 354 | 3.0 | 5.0 | 0.00 | 0.00 | 0.00 | 37 | 1011.4 |
| 20260509191156 | 83 | 52 | 5.0 | 6.0 | 0.00 | 0.00 | 0.00 | 43 | 1011.2 |
| 20260509190652 | 83 | 68 | 4.0 | 9.0 | 0.00 | 0.00 | 0.00 | 40 | 1011.3 |
| 20260509190149 | 83 | 135 | 2.0 | 5.0 | 0.00 | 0.00 | 0.00 | 42 | 1011.4 |
| 20260509185647 | 83 | 91 | 4.0 | 8.0 | 0.00 | 0.00 | 0.00 | 44 | 1011.3 |
| 20260509185143 | 83 | 45 | 2.0 | 4.0 | 0.00 | 0.00 | 0.00 | 49 | 1011.5 |
| 20260509184641 | 83 | 355 | 3.0 | 4.0 | 0.00 | 0.00 | 0.00 | 42 | 1011.6 |
| 20260509184137 | 83 | 101 | 2.0 | 5.0 | 0.00 | 0.00 | 0.00 | 45 | 1011.5 |
| 20260509183634 | 83 | 40 | 3.0 | 6.0 | 0.00 | 0.00 | 0.00 | 43 | 1011.6 |
| 20260509183129 | 82 | 80 | 3.0 | 6.0 | 0.00 | 0.00 | 0.00 | 44 | 1011.7 |
| 20260509182625 | 82 | 76 | 2.0 | 8.0 | 0.00 | 0.00 | 0.00 | 47 | 1011.6 |
| 20260509182122 | 82 | 172 | 0.0 | 3.0 | 0.00 | 0.00 | 0.00 | 45 | 1011.5 |
| 20260509181620 | 81 | 352 | 1.0 | 5.0 | 0.00 | 0.00 | 0.00 | 51 | 1011.8 |
| 20260509181118 | 82 | 20 | 3.0 | 5.0 | 0.00 | 0.00 | 0.00 | 52 | 1011.9 |
| 20260509180614 | 81 | 161 | 2.0 | 5.0 | 0.00 | 0.00 | 0.00 | 51 | 1011.9 |
| 20260509180111 | 82 | 0 | 2.0 | 4.0 | 0.00 | 0.00 | 0.00 | 54 | 1011.7 |
| 20260509175606 | 82 | 131 | 2.0 | 4.0 | 0.00 | 0.00 | 0.00 | 52 | 1011.8 |
| 20260509175103 | 82 | 146 | 3.0 | 5.0 | 0.00 | 0.00 | 0.00 | 57 | 1011.9 |
| 20260509174559 | 82 | 230 | 4.0 | 4.0 | 0.00 | 0.00 | 0.00 | 55 | 1012.0 |
| 20260509174055 | 80 | 169 | 2.0 | 6.0 | 0.00 | 0.00 | 0.00 | 60 | 1012.1 |
| 20260509173550 | 79 | 280 | 3.0 | 5.0 | 0.00 | 0.00 | 0.00 | 61 | 1011.8 |
| 20260509173046 | 81 | 197 | 2.0 | 4.0 | 0.00 | 0.00 | 0.00 | 59 | 1012.1 |
| 20260509172544 | 80 | 218 | 3.0 | 5.0 | 0.00 | 0.00 | 0.00 | 59 | 1011.9 |
| 20260509172039 | 78 | 211 | 4.0 | 4.0 | 0.00 | 0.00 | 0.00 | 63 | 1012.1 |
| 20260509171535 | 79 | 258 | 3.0 | 5.0 | 0.00 | 0.00 | 0.00 | 65 | 1012.1 |
| 20260509171032 | 79 | 5 | 2.0 | 3.0 | 0.00 | 0.00 | 0.00 | 64 | 1012.0 |
| 20260509170527 | 80 | 88 | 2.0 | 3.0 | 0.00 | 0.00 | 0.00 | 63 | 1012.1 |
| 20260509170023 | 80 | 252 | 3.0 | 4.0 | 0.00 | 0.00 | 0.00 | 63 | 1012.0 |
| 20260509165522 | 79 | 324 | 0.0 | 2.0 | 0.00 | 0.00 | 0.00 | 61 | 1012.2 |
| 20260509165018 | 78 | 298 | 1.0 | 4.0 | 0.00 | 0.00 | 0.00 | 69 | 1012.1 |
| 20260509164514 | 78 | 8 | 3.0 | 4.0 | 0.00 | 0.00 | 0.00 | 68 | 1012.1 |
| 20260509164009 | 78 | 331 | 3.0 | 3.0 | 0.00 | 0.00 | 0.00 | 69 | 1012.2 |
| 20260509163508 | 78 | 323 | 4.0 | 5.0 | 0.00 | 0.00 | 0.00 | 68 | 1012.2 |
| 20260509163002 | 78 | 309 | 2.0 | 4.0 | 0.00 | 0.00 | 0.00 | 72 | 1012.5 |
| 20260509162500 | 77 | 239 | 4.0 | 6.0 | 0.00 | 0.00 | 0.00 | 68 | 1012.6 |
| 20260509161956 | 78 | 340 | 3.0 | 5.0 | 0.00 | 0.00 | 0.00 | 69 | 1012.2 |
| 20260509161453 | 77 | 246 | 4.0 | 8.0 | 0.00 | 0.00 | 0.00 | 68 | 1012.5 |
| 20260509160947 | 78 | 295 | 2.0 | 3.0 | 0.00 | 0.00 | 0.00 | 70 | 1012.5 |
| 20260509160444 | 77 | 4 | 2.0 | 4.0 | 0.00 | 0.00 | 0.00 | 67 | 1012.6 |
| 20260509155944 | 78 | 213 | 3.0 | 4.0 | 0.00 | 0.00 | 0.00 | 68 | 1012.3 |
| 20260509155441 | 77 | 218 | 4.0 | 5.0 | 0.00 | 0.00 | 0.00 | 68 | 1012.5 |
| 20260509154937 | 77 | 335 | 2.0 | 3.0 | 0.00 | 0.00 | 0.00 | 69 | 1012.3 |
| 20260509154434 | 76 | 341 | 2.0 | 4.0 | 0.00 | 0.00 | 0.00 | 73 | 1012.6 |
| 20260509153931 | 75 | 309 | 3.0 | 4.0 | 0.00 | 0.00 | 0.00 | 72 | 1012.2 |
| 20260509153428 | 75 | 334 | 3.0 | 4.0 | 0.00 | 0.00 | 0.00 | 70 | 1012.6 |
| 20260509152925 | 75 | 347 | 2.0 | 5.0 | 0.00 | 0.00 | 0.00 | 72 | 1012.3 |
| 20260509152421 | 75 | 312 | 2.0 | 8.0 | 0.00 | 0.00 | 0.00 | 72 | 1012.2 |
| 20260509151918 | 75 | 342 | 2.0 | 3.0 | 0.00 | 0.00 | 0.00 | 74 | 1012.3 |
| 20260509151414 | 74 | 246 | 3.0 | 6.0 | 0.00 | 0.00 | 0.00 | 73 | 1012.2 |
| 20260509150912 | 74 | 325 | 1.0 | 3.0 | 0.00 | 0.00 | 0.00 | 71 | 1012.3 |
| 20260509150409 | 74 | 291 | 2.0 | 4.0 | 0.00 | 0.00 | 0.00 | 73 | 1012.5 |
| 20260509145908 | 75 | 188 | 2.0 | 3.0 | 0.00 | 0.00 | 0.00 | 71 | 1012.2 |
| 20260509145407 | 76 | 352 | 2.0 | 2.0 | 0.00 | 0.00 | 0.00 | 71 | 1012.5 |
| 20260509144903 | 75 | 321 | 2.0 | 2.0 | 0.00 | 0.00 | 0.00 | 70 | 1012.5 |
| 20260509144400 | 73 | 352 | 1.0 | 3.0 | 0.00 | 0.00 | 0.00 | 72 | 1012.5 |
| 20260509143857 | 73 | 104 | 1.0 | 2.0 | 0.00 | 0.00 | 0.00 | 73 | 1012.5 |
| 20260509143355 | 72 | 340 | 1.0 | 4.0 | 0.00 | 0.00 | 0.00 | 79 | 1012.7 |
| 20260509142851 | 72 | 9 | 0.0 | 2.0 | 0.00 | 0.00 | 0.00 | 81 | 1012.6 |
| 20260509142347 | 72 | 324 | 2.0 | 4.0 | 0.00 | 0.00 | 0.00 | 81 | 1012.6 |
| 20260509141843 | 72 | 299 | 1.0 | 2.0 | 0.00 | 0.00 | 0.00 | 83 | 1012.7 |
| 20260509141340 | 71 | 247 | 3.0 | 3.0 | 0.00 | 0.00 | 0.00 | 82 | 1012.3 |
| 20260509140836 | 73 | 253 | 1.0 | 2.0 | 0.00 | 0.00 | 0.00 | 80 | 1012.5 |
| 20260509140334 | 72 | 173 | 1.0 | 2.0 | 0.00 | 0.00 | 0.00 | 81 | 1012.3 |
| 20260509135832 | 69 | 65 | 0.0 | 2.0 | 0.00 | 0.00 | 0.00 | 86 | 1012.5 |
| 20260509135329 | 68 | 350 | 1.0 | 2.0 | 0.00 | 0.00 | 0.00 | 85 | 1012.3 |
| 20260509134826 | 69 | 301 | 1.0 | 1.0 | 0.00 | 0.00 | 0.00 | 83 | 1012.3 |
| 20260509134323 | 68 | 89 | 0.0 | 2.0 | 0.00 | 0.00 | 0.00 | 85 | 1012.6 |
| 20260509133820 | 69 | 339 | 0.0 | 1.0 | 0.00 | 0.00 | 0.00 | 83 | 1012.6 |
| 20260509133316 | 67 | 329 | 0.0 | 2.0 | 0.00 | 0.00 | 0.00 | 86 | 1012.5 |
| 20260509132815 | 67 | 28 | 2.0 | 3.0 | 0.00 | 0.00 | 0.00 | 85 | 1012.3 |
| 20260509132314 | 67 | 332 | 1.0 | 2.0 | 0.00 | 0.00 | 0.00 | 84 | 1012.5 |
| 20260509131810 | 67 | 159 | 1.0 | 2.0 | 0.00 | 0.00 | 0.00 | 87 | 1012.2 |
| 20260509131307 | 65 | 239 | 2.0 | 3.0 | 0.00 | 0.00 | 0.00 | 90 | 1012.0 |
| 20260509130803 | 65 | 336 | 2.0 | 2.0 | 0.00 | 0.00 | 0.00 | 90 | 1012.1 |
| 20260509130259 | 64 | 69 | 1.0 | 2.0 | 0.00 | 0.00 | 0.00 | 96 | 1012.0 |
| 20260509125756 | 62 | 185 | 1.0 | 2.0 | 0.00 | 0.00 | 0.00 | 97 | 1012.0 |
| 20260509125252 | 62 | 156 | 1.0 | 2.0 | 0.00 | 0.00 | 0.00 | 99 | 1012.0 |
| 20260509124749 | 61 | 144 | 0.0 | 1.0 | 0.00 | 0.00 | 0.00 | 99 | 1011.8 |
| 20260509124245 | 61 | 149 | 2.0 | 2.0 | 0.00 | 0.00 | 0.00 | 99 | 1011.8 |
| 20260509123744 | 61 | 191 | 1.0 | 1.0 | 0.00 | 0.00 | 0.00 | 99 | 1011.8 |
| 20260509123241 | 60 | 217 | 0.0 | 1.0 | 0.00 | 0.00 | 0.00 | 99 | 1011.9 |
| 20260509122736 | 59 | 151 | 0.0 | 2.0 | 0.00 | 0.00 | 0.00 | 99 | 1011.7 |
| 20260509122233 | 58 | 187 | 1.0 | 2.0 | 0.00 | 0.00 | 0.00 | 99 | 1011.6 |
| 20260509121730 | 58 | 32 | 0.0 | 1.0 | 0.00 | 0.00 | 0.00 | 99 | 1011.6 |
| 20260509121227 | 58 | 186 | 0.0 | 2.0 | 0.00 | 0.00 | 0.00 | 99 | 1011.6 |
| 20260509120726 | 59 | 52 | 0.0 | 2.0 | 0.00 | 0.00 | 0.00 | 99 | 1011.4 |
| 20260509120223 | 58 | 135 | 0.0 | 2.0 | 0.00 | 0.00 | 0.00 | 99 | 1011.4 |
| 20260509115721 | 56 | 135 | 0.0 | 2.0 | 0.00 | 0.00 | 0.00 | 99 | 1011.3 |
| 20260509115218 | 56 | 189 | 1.0 | 3.0 | 0.00 | 0.00 | 0.00 | 99 | 1011.2 |
| 20260509114716 | 55 | 157 | 1.0 | 2.0 | 0.00 | 0.00 | 0.00 | 99 | 1011.2 |
| 20260509114214 | 55 | 16 | 0.0 | 1.0 | 0.00 | 0.00 | 0.00 | 99 | 1011.1 |
| 20260509113713 | 54 | 112 | 0.0 | 1.0 | 0.00 | 0.00 | 0.00 | 99 | 1011.2 |
| 20260509113210 | 54 | 119 | 0.0 | 1.0 | 0.00 | 0.00 | 0.00 | 99 | 1011.0 |
| 20260509112706 | 54 | 102 | 0.0 | 1.0 | 0.00 | 0.00 | 0.00 | 99 | 1011.0 |
| 20260509112203 | 55 | 49 | 2.0 | 2.0 | 0.00 | 0.00 | 0.00 | 99 | 1011.0 |
| 20260509111700 | 55 | 24 | 2.0 | 2.0 | 0.00 | 0.00 | 0.00 | 99 | 1010.8 |
| 20260509111157 | 55 | 226 | 1.0 | 2.0 | 0.00 | 0.00 | 0.00 | 99 | 1010.9 |
| 20260509110654 | 55 | 214 | 0.0 | 1.0 | 0.00 | 0.00 | 0.00 | 99 | 1010.9 |
| 20260509110151 | 55 | 115 | 1.0 | 2.0 | 0.00 | 0.00 | 0.00 | 99 | 1010.8 |
| 20260509105649 | 55 | 169 | 1.0 | 2.0 | 0.00 | 0.00 | 0.00 | 99 | 1010.6 |
| 20260509105146 | 56 | 148 | 0.0 | 1.0 | 0.00 | 0.00 | 0.00 | 99 | 1010.8 |
| 20260509104643 | 57 | 177 | 0.0 | 2.0 | 0.00 | 0.00 | 0.00 | 99 | 1010.7 |
| 20260509104140 | 57 | 175 | 2.0 | 3.0 | 0.00 | 0.00 | 0.00 | 99 | 1010.8 |
| 20260509103638 | 56 | 214 | 1.0 | 2.0 | 0.00 | 0.00 | 0.00 | 99 | 1010.7 |
| 20260509103136 | 56 | 187 | 1.0 | 2.0 | 0.00 | 0.00 | 0.00 | 99 | 1010.5 |
| 20260509102633 | 56 | 151 | 2.0 | 3.0 | 0.00 | 0.00 | 0.00 | 99 | 1010.6 |
| 20260509102130 | 56 | 53 | 0.0 | 2.0 | 0.00 | 0.00 | 0.00 | 99 | 1011.0 |
| 20260509101626 | 56 | 157 | 0.0 | 2.0 | 0.00 | 0.00 | 0.00 | 99 | 1010.8 |
| 20260509101123 | 56 | 157 | 0.0 | 2.0 | 0.00 | 0.00 | 0.00 | 99 | 1010.8 |
| 20260509100620 | 56 | 89 | 0.0 | 2.0 | 0.00 | 0.00 | 0.00 | 99 | 1010.7 |
| 20260509100118 | 56 | 106 | 0.0 | 0.0 | 0.00 | 0.00 | 0.00 | 99 | 1010.7 |
| 20260509095614 | 57 | 16 | 0.0 | 2.0 | 0.00 | 0.00 | 0.00 | 99 | 1010.7 |
| 20260509095111 | 57 | 169 | 2.0 | 2.0 | 0.00 | 0.00 | 0.00 | 99 | 1010.5 |
| 20260509094607 | 57 | 130 | 2.0 | 2.0 | 0.00 | 0.00 | 0.00 | 99 | 1010.5 |
| 20260509094105 | 57 | 150 | 0.0 | 2.0 | 0.00 | 0.00 | 0.00 | 99 | 1010.7 |
| 20260509093603 | 56 | 139 | 0.0 | 1.0 | 0.00 | 0.00 | 0.00 | 99 | 1010.6 |
| 20260509093100 | 57 | 161 | 1.0 | 1.0 | 0.00 | 0.00 | 0.00 | 99 | 1010.5 |
| 20260509092558 | 56 | 154 | 0.0 | 1.0 | 0.00 | 0.00 | 0.00 | 99 | 1010.6 |
| 20260509092056 | 56 | 128 | 0.0 | 2.0 | 0.00 | 0.00 | 0.00 | 99 | 1010.8 |
| 20260509091554 | 57 | 134 | 0.0 | 2.0 | 0.00 | 0.00 | 0.00 | 99 | 1010.5 |
| 20260509091050 | 57 | 152 | 1.0 | 2.0 | 0.00 | 0.00 | 0.00 | 99 | 1010.5 |
| 20260509090547 | 57 | 149 | 2.0 | 2.0 | 0.00 | 0.00 | 0.00 | 99 | 1010.7 |
| 20260509090045 | 57 | 146 | 2.0 | 2.0 | 0.00 | 0.00 | 0.00 | 99 | 1010.7 |
| 20260509085542 | 57 | 150 | 0.0 | 2.0 | 0.00 | 0.00 | 0.00 | 99 | 1010.8 |
| 20260509085038 | 57 | 146 | 2.0 | 2.0 | 0.00 | 0.00 | 0.00 | 99 | 1010.8 |
| 20260509084535 | 57 | 154 | 2.0 | 2.0 | 0.00 | 0.00 | 0.00 | 99 | 1011.1 |
| 20260509084032 | 57 | 149 | 2.0 | 2.0 | 0.00 | 0.00 | 0.00 | 99 | 1011.0 |
| 20260509083530 | 57 | 157 | 0.0 | 2.0 | 0.02 | 0.00 | 0.00 | 99 | 1011.0 |
| 20260509083026 | 57 | 151 | 2.0 | 2.0 | 0.02 | 0.00 | 0.00 | 99 | 1011.1 |
| 20260509082524 | 57 | 163 | 2.0 | 2.0 | 0.00 | 0.00 | 0.00 | 99 | 1011.0 |
| 20260509082021 | 57 | 168 | 0.0 | 1.0 | 0.00 | 0.00 | 0.00 | 99 | 1010.9 |
| 20260509081518 | 57 | 150 | 0.0 | 2.0 | 0.00 | 0.00 | 0.00 | 99 | 1011.0 |
| 20260509081014 | 57 | 149 | 2.0 | 2.0 | 0.00 | 0.00 | 0.00 | 99 | 1011.1 |
| 20260509080513 | 57 | 149 | 2.0 | 2.0 | 0.00 | 0.00 | 0.00 | 99 | 1011.4 |
| 20260509080010 | 57 | 145 | 1.0 | 1.0 | 0.00 | 0.00 | 0.00 | 99 | 1011.3 |
| 20260509075507 | 57 | 141 | 1.0 | 2.0 | 0.00 | 0.00 | 0.00 | 99 | 1011.3 |
| 20260509075005 | 58 | 154 | 2.0 | 2.0 | 0.00 | 0.00 | 0.00 | 99 | 1011.3 |
| 20260509074502 | 57 | 168 | 2.0 | 2.0 | 0.00 | 0.00 | 0.00 | 99 | 1011.3 |
| 20260509073958 | 57 | 157 | 0.0 | 0.0 | 0.00 | 0.00 | 0.00 | 99 | 1011.5 |
| 20260509073455 | 58 | 125 | 1.0 | 1.0 | 0.00 | 0.00 | 0.00 | 99 | 1011.5 |
| 20260509072951 | 58 | 150 | 2.0 | 2.0 | 0.00 | 0.00 | 0.00 | 99 | 1011.5 |
| 20260509072449 | 57 | 127 | 2.0 | 2.0 | 0.00 | 0.00 | 0.00 | 99 | 1011.5 |
| 20260509071945 | 58 | 147 | 0.0 | 2.0 | 0.00 | 0.00 | 0.00 | 99 | 1011.7 |
| 20260509071442 | 58 | 147 | 1.0 | 2.0 | 0.00 | 0.00 | 0.00 | 99 | 1011.7 |
| 20260509070940 | 58 | 151 | 2.0 | 2.0 | 0.00 | 0.00 | 0.00 | 99 | 1011.5 |
| 20260509070436 | 58 | 141 | 0.0 | 2.0 | 0.00 | 0.00 | 0.00 | 99 | 1011.6 |
| 20260509065932 | 57 | 142 | 1.0 | 2.0 | 0.00 | 0.00 | 0.00 | 99 | 1011.4 |
| 20260509065428 | 58 | 29 | 1.0 | 1.0 | 0.00 | 0.00 | 0.00 | 99 | 1011.4 |
| 20260509064924 | 58 | 130 | 1.0 | 2.0 | 0.00 | 0.00 | 0.00 | 99 | 1011.3 |
| 20260509064422 | 58 | 142 | 1.0 | 2.0 | 0.00 | 0.00 | 0.00 | 99 | 1011.2 |
| 20260509063920 | 59 | 156 | 2.0 | 2.0 | 0.00 | 0.00 | 0.00 | 99 | 1011.2 |
| 20260509063415 | 59 | 159 | 2.0 | 2.0 | 0.00 | 0.00 | 0.00 | 99 | 1011.2 |
| 20260509062913 | 59 | 157 | 2.0 | 2.0 | 0.00 | 0.00 | 0.00 | 99 | 1011.3 |
| 20260509062410 | 59 | 209 | 0.0 | 0.0 | 0.00 | 0.00 | 0.00 | 99 | 1011.4 |
| 20260509061907 | 59 | 214 | 0.0 | 2.0 | 0.00 | 0.00 | 0.00 | 99 | 1011.4 |
| 20260509061405 | 59 | 173 | 1.0 | 1.0 | 0.00 | 0.00 | 0.00 | 99 | 1011.5 |
| 20260509060901 | 59 | 214 | 0.0 | 2.0 | 0.00 | 0.00 | 0.00 | 98 | 1011.1 |
| 20260509060359 | 59 | 211 | 1.0 | 2.0 | 0.00 | 0.00 | 0.00 | 98 | 1011.1 |
| 20260509055855 | 59 | 170 | 0.0 | 1.0 | 0.00 | 0.00 | 0.00 | 98 | 1011.0 |
| 20260509055350 | 59 | 22 | 0.0 | 2.0 | 0.00 | 0.00 | 0.00 | 98 | 1011.1 |
| 20260509054847 | 59 | 93 | 2.0 | 3.0 | 0.00 | 0.00 | 0.00 | 98 | 1011.1 |
| 20260509054344 | 60 | 158 | 2.0 | 3.0 | 0.00 | 0.00 | 0.00 | 98 | 1011.0 |
| 20260509053842 | 60 | 129 | 2.0 | 2.0 | 0.00 | 0.00 | 0.00 | 98 | 1011.2 |
| 20260509053339 | 60 | 222 | 1.0 | 2.0 | 0.00 | 0.00 | 0.00 | 97 | 1011.3 |
| 20260509052838 | 60 | 164 | 2.0 | 3.0 | 0.00 | 0.00 | 0.00 | 97 | 1011.4 |
| 20260509052335 | 60 | 337 | 0.0 | 1.0 | 0.00 | 0.00 | 0.00 | 97 | 1011.2 |
| 20260509051832 | 61 | 258 | 2.0 | 4.0 | 0.00 | 0.00 | 0.00 | 97 | 1011.2 |
| 20260509051330 | 61 | 236 | 2.0 | 3.0 | 0.00 | 0.00 | 0.00 | 97 | 1011.2 |
| 20260509050826 | 61 | 314 | 2.0 | 4.0 | 0.00 | 0.00 | 0.00 | 97 | 1011.2 |
| 20260509050323 | 61 | 329 | 2.0 | 3.0 | 0.00 | 0.00 | 0.00 | 96 | 1011.2 |
| 20260509045820 | 62 | 134 | 2.0 | 3.0 | 0.00 | 0.11 | 0.11 | 94 | 1011.0 |
| 20260509045317 | 62 | 143 | 1.0 | 2.0 | 0.00 | 0.11 | 0.11 | 94 | 1010.9 |
| 20260509044815 | 62 | 207 | 3.0 | 4.0 | 0.00 | 0.11 | 0.11 | 95 | 1010.9 |
| 20260509044312 | 62 | 199 | 4.0 | 7.0 | 0.00 | 0.11 | 0.11 | 96 | 1010.8 |
| 20260509043808 | 62 | 207 | 3.0 | 6.0 | 0.00 | 0.11 | 0.11 | 96 | 1010.8 |
| 20260509043304 | 61 | 215 | 5.0 | 9.0 | 0.02 | 0.11 | 0.11 | 97 | 1010.8 |
| 20260509042800 | 61 | 141 | 4.0 | 5.0 | 0.02 | 0.11 | 0.11 | 96 | 1011.3 |
| 20260509042257 | 61 | 215 | 4.0 | 6.0 | 0.00 | 0.10 | 0.10 | 97 | 1012.3 |
| 20260509041753 | 61 | 206 | 4.0 | 4.0 | 0.00 | 0.10 | 0.10 | 98 | 1012.7 |
| 20260509041250 | 61 | 259 | 2.0 | 3.0 | 0.00 | 0.10 | 0.10 | 97 | 1012.2 |
| 20260509040749 | 61 | 244 | 2.0 | 3.0 | 0.00 | 0.10 | 0.10 | 98 | 1012.1 |
| 20260509040246 | 61 | 191 | 2.0 | 4.0 | 0.00 | 0.10 | 0.10 | 97 | 1011.6 |
| 20260509035743 | 60 | 154 | 2.0 | 3.0 | 0.00 | 0.10 | 0.10 | 97 | 1012.1 |
| 20260509035239 | 61 | 161 | 3.0 | 4.0 | 0.00 | 0.10 | 0.10 | 97 | 1012.1 |
| 20260509034736 | 61 | 152 | 3.0 | 4.0 | 0.05 | 0.10 | 0.10 | 97 | 1012.6 |
| 20260509034234 | 61 | 220 | 5.0 | 8.0 | 0.07 | 0.10 | 0.10 | 96 | 1013.1 |